This is the latest recevied weather packets stored in our database for station/object WB9ZLM. If no packets are shown the sender has not sent any weather packets the latest 10 day(s).
| Time | Temp. | Humidity | Pressure | Rain* | Wind** | Luminosity | Snow |
|---|---|---|---|---|---|---|---|
| 1777559521 | 9.44° C | 51% | 1019.7 hPa | 0 mm | - | - | - |
| 1777559461 | 9.44° C | 51% | 1019.7 hPa | 0 mm | - | - | - |
| 1777558621 | 9.44° C | 52% | 1019.9 hPa | 0 mm | - | - | - |
| 1777558560 | 9.44° C | 52% | 1019.9 hPa | 0 mm | - | - | - |
| 1777557722 | 8.89° C | 52% | 1020.1 hPa | 0 mm | - | - | - |
| 1777557660 | 8.89° C | 52% | 1020.1 hPa | 0 mm | - | - | - |
| 1777556822 | 8.89° C | 54% | 1020.1 hPa | 0 mm | - | - | - |
| 1777556760 | 8.89° C | 54% | 1020.1 hPa | 0 mm | - | - | - |
| 1777555922 | 8.33° C | 58% | 1020.1 hPa | 0 mm | - | - | - |
| 1777555860 | 8.33° C | 58% | 1020.1 hPa | 0 mm | - | - | - |
| 1777555022 | 7.78° C | 61% | 1020.1 hPa | 0 mm | - | - | - |
| 1777554960 | 7.78° C | 61% | 1020.1 hPa | 0 mm | - | - | - |
| 1777554121 | 7.78° C | 63% | 1020.3 hPa | 0 mm | - | - | - |
| 1777554060 | 7.78° C | 63% | 1020.3 hPa | 0 mm | - | - | - |
| 1777553222 | 6.67° C | 65% | 1020.4 hPa | 0 mm | - | - | - |
| 1777553160 | 6.67° C | 65% | 1020.4 hPa | 0 mm | - | - | - |
| 1777552321 | 6.67° C | 67% | 1019.9 hPa | 0 mm | - | - | - |
| 1777552260 | 6.67° C | 67% | 1019.9 hPa | 0 mm | - | - | - |
| 1777551421 | 6.11° C | 66% | 1019.8 hPa | 0 mm | - | - | - |
| 1777551360 | 6.11° C | 66% | 1019.8 hPa | 0 mm | - | - | - |
| 1777550521 | 5.56° C | 68% | 1019.7 hPa | 0 mm | - | - | - |
| 1777550460 | 5.56° C | 68% | 1019.7 hPa | 0 mm | - | - | - |
| 1777549621 | 5.56° C | 68% | 1019.7 hPa | 0 mm | - | - | - |
| 1777549560 | 5.56° C | 68% | 1019.7 hPa | 0 mm | - | - | - |
| 1777548721 | 5.56° C | 67% | 1019.6 hPa | 0 mm | - | - | - |
* Rain latest hour (hover to see other rain measurements)
** Current wind speed in m/s (hover to see current wind gust speed)